Location: Kingston, Ontario, Canada
(44.2796°N, 76.5445°W)
Time: 02:08:44
(UTC-05:00)

ISS - Visible Passes

Search period start: 11 December 2018 00:00
Search period end: 21 December 2018 00:00
Orbit: 401 x 408 km, 51.6° (Epoch: 12 December)

Date Brightness Start Highest point End Pass type
(mag) Time Alt. Az. Time Alt. Az. Time Alt. Az.
11 Dec -2.0 18:26:18 10° WNW 18:29:12 29° SW 18:30:38 20° S visible
12 Dec -3.1 17:33:54 10° WNW 17:37:06 53° SW 17:40:16 10° SE visible
13 Dec -0.7 18:19:18 10° WSW 18:20:58 13° SW 18:22:38 10° SSW visible
14 Dec -1.2 17:26:15 10° W 17:28:57 24° SW 17:31:38 10° SSE visible
16 Dec 0.0 17:19:48 10° WSW 17:20:36 11° SW 17:21:26 10° SW visible
